Location: Newark
(13.6797°N, 8.5297°E)
Time: 14:44:52
(UTC+00:00)

LightSail 2 - Pass Details

Date: 06 December 2019
Orbit: 704 x 720 km, 24.0° (Epoch: 21 January)

Event Time Altitude Azimuth Distance (km) Brightness Sun altitude
Rises 18:10:52 0° 297° (WNW) 3,086 9.1 -17.5°
Reaches altitude 10° 18:13:36 10° 309° (NW) 2,164 8.0 -18.1°
Maximum altitude 18:18:00 28° 8° (N) 1,287 6.2 -19.1°
Enters shadow 18:18:47 27° 24° (NNE) 1,324 6.2 -19.3°
